Lid_Strength_Index
4 4 4 4 3 4 4 4 4 4 4 4 5 5 5 6 6 5 6 6 6 6
3 3 3 3 2 3 3 4 4 4 5 5 5 6 6 6 6 6 7 7 6 6
3 3 2 2 3 3 3 3 4 5 5 5 6 6 6 6 6 7 6 6 7 7
3 2 2 3 3 3 3 4 5 5 6 6 6 6 7 7 7 8 8 7 7 7
3 2 3 3 3 3 4 4 5 5 6 6 6 7 7 8 8 9 9 8 8 8
3 3 3 3 4 4 5 5 5 6 6 7 7 7 8 9 9 9 9 8 8 8
3 3 4 4 4 4 5 5 6 6 6 6 7 7 9 9 9 9 9 8 8 8
4 4 4 4 4 4 5 5 6 6 6 6 7 9 9 9 10 9 9 8 8 8
4 4 5 5 5 5 5 5 6 7 7 7 7 9 9 9 10 9 9 9 9 8
5 5 5 5 5 5 6 6 7 7 7 7 7 9 9 9 9 10 9 10 10 9
5 6 5 5 6 6 6 6 7 7 7 7 7 8 9 9 9 9 10 10 10 10
5 6 6 6 6 6 6 6 7 7 7 8 7 9 9 9 10 10 10 10 10 10
6 6 6 6 6 6 6 7 7 7 7 7 8 9 10 10 10 11 11 11 10 10
6 6 6 6 6 6 6 6 7 8 7 8 8 9 10 10 11 11 12 12 11 10